G7GQA-4 Weather Reports


Display with metric or nautical units.
time (UTC)temp
F
wind
direction
speed
MPH
gust
MPH
rain 1hr
in
rain 24hr
in
rain mn
in
humidity
%
barometer
mb
20260505125022 59 320 3.0 9.0 0.00 0.00 0.00 53
20260505124022 59 318 3.0 7.0 0.00 0.00 0.00 52
20260505123023 58 314 3.0 5.0 0.00 0.00 0.00 55
20260505122022 58 327 3.0 8.0 0.00 0.00 0.00 56
20260505121022 57 349 3.0 5.0 0.00 0.00 0.00 57
20260505120023 57 329 3.0 6.0 0.00 0.00 0.00 58
20260505115022 57 327 2.0 4.0 0.00 0.00 0.00 59
20260505114022 57 318 3.0 6.0 0.00 0.00 0.00 59
20260505113023 56 327 2.0 4.0 0.00 0.00 0.00 61
20260505112023 56 310 2.0 4.0 0.00 0.00 0.00 61
20260505111023 56 339 3.0 5.0 0.00 0.00 0.00 63
20260505102022 56 352 3.0 5.0 0.00 0.00 0.00 66
20260505101022 55 323 2.0 6.0 0.00 0.00 0.00 69
20260505100022 56 39 3.0 6.0 0.00 0.00 0.00 65
20260505095022 56 331 3.0 6.0 0.00 0.00 0.00 65
20260505094022 55 326 3.0 6.0 0.00 0.00 0.00 68
20260505093022 55 325 3.0 5.0 0.00 0.00 0.00 70
20260505092022 54 320 3.0 6.0 0.00 0.00 0.00 72
20260505091022 52 308 4.0 8.0 0.00 0.00 0.00 74
20260505090022 53 315 3.0 5.0 0.00 0.00 0.00 74
20260505085022 51 313 4.0 10.0 0.00 0.00 0.00 78
20260505084021 51 308 2.0 6.0 0.00 0.00 0.00 79
20260505083021 51 306 2.0 4.0 0.00 0.00 0.00 80
20260504225521 46 0.0 0.0 0.00 0.00 0.00 93
20260504224521 47 0.0 0.0 0.00 0.02 0.00 92
20260504223521 47 0.0 0.0 0.00 0.02 0.00 92
20260504222521 48 144 1.0 2.0 0.00 0.02 0.00 92
20260504221521 47 0.0 0.0 0.00 0.02 0.00 92
20260504220522 47 0.0 0.0 0.00 0.02 0.00 92
20260504215521 48 0.0 0.0 0.00 0.03 0.00 92
20260504214521 48 0.0 0.0 0.00 0.03 0.00 92
20260504213522 48 0.0 0.0 0.00 0.05 0.00 92
20260504212522 49 0.0 0.0 0.00 0.09 0.00 91
20260504211521 49 0.0 0.0 0.00 0.13 0.00 91
20260504210522 49 0.0 0.0 0.00 0.14 0.00 91
20260504205522 49 144 0.0 2.0 0.00 0.14 0.00 91
20260504204521 50 0.0 0.0 0.00 0.14 0.00 90
20260504203522 50 0.0 0.0 0.00 0.14 0.00 90
20260504202522 50 0.0 0.0 0.00 0.14 0.00 89
20260504201522 51 0.0 0.0 0.00 0.14 0.00 88
20260504200522 52 0.0 0.0 0.00 0.14 0.00 86
20260504195522 53 0.0 0.0 0.00 0.14 0.00 84
20260504194522 54 144 0.0 2.0 0.00 0.14 0.00 83
20260504193521 54 144 0.0 2.0 0.00 0.14 0.00 82
20260504192522 55 144 0.0 2.0 0.00 0.14 0.00 81
20260504191522 56 120 1.0 2.0 0.00 0.14 0.00 80
20260504190522 56 120 2.0 3.0 0.00 0.14 0.00 79
20260504185522 57 146 2.0 4.0 0.00 0.14 0.00 77
20260504184522 57 126 2.0 7.0 0.00 0.14 0.00 76
20260504183522 58 125 1.0 4.0 0.00 0.14 0.00 76
20260504182522 58 116 1.0 3.0 0.00 0.14 0.00 74
20260504181522 58 358 1.0 2.0 0.00 0.14 0.00 75
20260504180522 58 84 1.0 2.0 0.00 0.14 0.00 75
20260504175522 58 310 2.0 4.0 0.00 0.14 0.00 76
20260504174522 58 42 2.0 4.0 0.00 0.14 0.00 75
20260504173522 59 331 1.0 2.0 0.00 0.14 0.00 75
20260504172522 58 336 2.0 3.0 0.00 0.14 0.00 76
20260504171522 58 1 2.0 4.0 0.00 0.14 0.00 76
20260504170522 58 329 2.0 4.0 0.00 0.14 0.00 76
20260504150521 59 105 1.0 2.0 0.00 0.14 0.00 75